DL4JCP-6 Weather Reports


time (UTC)temp
C
wind
direction
speed
KPH
gust
KPH
rain 1hr
cm
rain 24hr
cm
rain mn
cm
humidity
%
barometer
mb
20260506013313 9 182 0.0 0.0 0.00 1.83 0.03 96 1006.7
20260506010312 9 197 1.6 8.0 0.00 1.83 0.03 96 1007.0
20260506004817 8 157 0.0 0.0 0.00 1.83 0.03 96 1006.8
20260506003312 8 157 1.6 4.8 0.00 1.83 0.03 96 1007.1
20260506001813 8 157 0.0 0.0 0.03 1.83 0.03 96 1007.2
20260506000312 8 157 0.0 0.0 0.03 1.83 0.03 95 1007.4
20260505234812 9 157 0.0 0.0 0.03 1.83 0.03 95 1007.6
20260505233313 9 157 1.6 4.8 0.03 1.83 0.03 95 1007.5
20260505231812 9 157 3.2 8.0 0.00 1.80 0.00 95 1007.4
20260505230312 10 157 0.0 0.0 0.00 1.80 0.00 95 1007.2
20260505224812 10 157 1.6 3.2 0.00 1.80 0.00 95 1007.4
20260505223312 10 154 0.0 0.0 0.00 1.80 0.00 95 1007.6
20260505221811 10 154 0.0 0.0 0.08 1.80 0.00 95 1007.8
20260505220311 10 154 1.6 4.8 0.23 1.80 0.00 95 1008.1
20260505214812 10 82 1.6 4.8 0.33 1.80 1.80 95 1007.9
20260505213311 10 80 0.0 6.4 0.51 1.80 1.80 95 1008.0
20260505211812 10 80 0.0 0.0 0.56 1.73 1.73 95 1008.5
20260505210311 10 80 0.0 0.0 0.56 1.57 1.57 94 1008.5
20260505204811 10 130 0.0 0.0 0.71 1.45 1.45 94 1008.8
20260505203311 10 176 1.6 3.2 0.91 1.30 1.30 94 1009.0
20260505201811 10 176 4.8 14.5 0.89 1.17 1.17 94 1008.9
20260505194811 10 242 12.9 29.0 0.48 0.74 0.74 92 1008.2
20260505193311 11 231 25.7 43.5 0.13 0.38 0.38 89 1008.3
20260505192812 12 208 8.0 25.7 0.08 0.33 0.33 93 1008.1
20260505192311 12 207 4.8 11.3 0.05 0.30 0.30 94 1007.6
20260505191812 12 56 6.4 12.9 0.00 0.25 0.25 93 1007.0
20260505191311 12 59 6.4 16.1 0.00 0.25 0.25 93 1007.0
20260505190812 12 68 4.8 11.3 0.00 0.25 0.25 93 1006.8
20260505190311 12 66 8.0 12.9 0.00 0.25 0.25 93 1006.6
20260505185810 12 56 8.0 12.9 0.00 0.25 0.25 93 1006.7
20260505185310 12 54 6.4 17.7 0.00 0.25 0.25 93 1006.7
20260505184812 12 56 3.2 9.7 0.00 0.25 0.25 93 1006.6
20260505184311 12 72 6.4 14.5 0.00 0.25 0.25 93 1006.6
20260505183811 12 57 4.8 17.7 0.00 0.25 0.25 93 1006.5
20260505183314 13 65 3.2 17.7 0.00 0.25 0.25 93 1006.4
20260505183311 13 65 4.8 17.7 0.00 0.25 0.25 93 1006.4
20260505182811 13 61 3.2 12.9 0.00 0.25 0.25 93 1006.5
20260505182311 13 57 3.2 9.7 0.00 0.25 0.25 93 1006.6
20260505181814 13 21 1.6 3.2 0.00 0.25 0.25 93 1006.7
20260505181311 13 20 3.2 6.4 0.00 0.25 0.25 93 1006.8
20260505180815 13 20 4.8 11.3 0.00 0.25 0.25 93 1006.9
20260505180314 13 16 4.8 16.1 0.00 0.25 0.25 93 1007.0
20260505180310 13 16 3.2 16.1 0.00 0.25 0.25 93 1007.0
20260505175811 13 342 4.8 12.9 0.00 0.25 0.25 93 1007.0
20260505175310 13 28 6.4 17.7 0.00 0.25 0.25 93 1007.0
20260505174813 13 335 4.8 8.0 0.00 0.25 0.25 93 1007.1
20260505174310 13 10 4.8 11.3 0.00 0.25 0.25 93 1007.0
20260505173810 13 348 4.8 11.3 0.00 0.25 0.25 93 1006.9
20260505173313 13 22 8.0 16.1 0.00 0.25 0.25 93 1006.9
20260505173310 13 22 8.0 16.1 0.00 0.25 0.25 93 1006.9
20260505172811 13 30 8.0 12.9 0.00 0.25 0.25 93 1006.9
20260505172310 13 52 6.4 14.5 0.03 0.25 0.25 93 1006.9
20260505171814 13 25 6.4 16.1 0.03 0.25 0.25 93 1007.0
20260505171811 13 25 9.7 16.1 0.03 0.25 0.25 93 1007.0
20260505171311 13 17 8.0 16.1 0.05 0.25 0.25 93 1007.0
20260505170812 14 41 4.8 8.0 0.08 0.25 0.25 93 1007.2
20260505170313 14 24 6.4 14.5 0.13 0.25 0.25 93 1007.3
20260505170310 14 24 6.4 14.5 0.13 0.25 0.25 93 1007.3
20260505165811 14 20 4.8 14.5 0.13 0.25 0.25 93 1007.3
20260505165312 14 19 4.8 11.3 0.13 0.25 0.25 93 1007.4
20260505164813 14 5 4.8 11.3 0.13 0.25 0.25 93 1007.4
20260505164811 14 5 4.8 11.3 0.13 0.25 0.25 93 1007.4
20260505164311 14 21 6.4 11.3 0.13 0.25 0.25 92 1007.3
20260505163811 14 20 4.8 9.7 0.13 0.25 0.25 92 1007.5
20260505163311 14 5 4.8 11.3 0.13 0.25 0.25 92 1007.6
20260505162811 14 331 3.2 4.8 0.13 0.25 0.25 92 1007.6
20260505162310 14 331 1.6 6.4 0.10 0.23 0.23 91 1007.7
20260505161811 15 309 4.8 6.4 0.10 0.23 0.23 91 1007.7
20260505161310 15 293 1.6 6.4 0.08 0.23 0.23 91 1008.2
20260505160811 15 312 4.8 8.0 0.05 0.18 0.18 91 1008.2
20260505160311 15 336 3.2 4.8 0.00 0.15 0.15 91 1008.0
20260505153313 15 51 6.4 17.7 0.00 0.15 0.15 90 1008.0
20260505153310 15 51 8.0 17.7 0.00 0.15 0.15 90 1008.0
20260505152810 15 13 6.4 12.9 0.00 0.15 0.15 90 1007.9
20260505152310 15 5 3.2 8.0 0.00 0.15 0.15 89 1008.1
20260505151812 15 59 1.6 12.9 0.00 0.15 0.15 89 1008.1
20260505151810 15 59 4.8 12.9 0.00 0.15 0.15 89 1008.1
20260505151309 15 53 6.4 16.1 0.03 0.15 0.15 88 1008.1
20260505150814 15 51 6.4 11.3 0.03 0.15 0.15 88 1008.2
20260505150311 15 51 4.8 9.7 0.03 0.15 0.15 88 1008.3
20260505140317 15 82 3.2 6.4 0.03 0.13 0.13 85 1008.6
20260505140311 15 82 4.8 6.4 0.03 0.13 0.13 85 1008.6
20260505130310 17 66 4.8 12.9 0.00 0.10 0.10 79 1009.2
20260505124817 17 360 6.4 16.1 0.00 0.10 0.10 79 1009.4
20260505124811 17 360 8.0 16.1 0.00 0.10 0.10 79 1009.4
20260505124311 17 32 8.0 17.7 0.00 0.10 0.10 78 1009.4
20260505123810 17 323 9.7 14.5 0.00 0.10 0.10 78 1009.4
20260505123317 17 10 8.0 17.7 0.00 0.10 0.10 79 1009.3
20260505123310 17 10 6.4 17.7 0.00 0.10 0.10 79 1009.3
20260505122810 17 5 9.7 14.5 0.00 0.10 0.10 78 1009.4
20260505122310 18 11 11.3 17.7 0.00 0.10 0.10 76 1009.5
20260505121818 18 294 6.4 14.5 0.00 0.10 0.10 76 1009.5
20260505121814 18 294 3.2 14.5 0.00 0.10 0.10 76 1009.5
20260505121310 18 348 6.4 16.1 0.00 0.10 0.10 77 1009.7
20260505120810 18 321 4.8 14.5 0.00 0.10 0.10 77 1009.6
20260505120314 18 351 4.8 11.3 0.00 0.10 0.10 75 1009.6
20260505120310 18 351 6.4 11.3 0.00 0.10 0.10 75 1009.6
20260505115810 18 79 8.0 14.5 0.03 0.10 0.10 73 1009.8
20260505115310 18 42 6.4 9.7 0.08 0.10 0.10 74 1009.9
20260505114814 18 346 4.8 9.7 0.08 0.10 0.10 77 1009.9
20260505113317 16 81 3.2 8.0 0.08 0.10 0.10 82 1009.9
20260505111814 16 20 3.2 4.8 0.08 0.10 0.10 85 1010.0
20260505110314 16 10 4.8 8.0 0.08 0.10 0.10 83 1009.9
20260505101814 17 355 4.8 11.3 0.00 0.03 0.03 72 1010.0
20260505100314 18 309 4.8 8.0 0.00 0.03 0.03 72 1010.4
20260505094816 18 44 4.8 12.9 0.00 0.03 0.03 65 1010.4
20260505093317 18 344 6.4 12.9 0.00 0.03 0.03 69 1010.5
20260505091816 18 11 6.4 14.5 0.00 0.03 0.03 75 1010.7
20260505090314 17 28 4.8 12.9 0.00 0.03 0.03 73 1010.6
20260505084816 17 106 6.4 12.9 0.00 0.03 0.03 74 1010.7
20260505083313 16 74 3.2 6.4 0.00 0.03 0.03 79 1010.6
20260505081816 15 64 1.6 6.4 0.00 0.03 0.03 82 1010.7
20260505080313 15 63 4.8 8.0 0.00 0.03 0.03 82 1010.7
20260505074813 15 58 3.2 8.0 0.00 0.03 0.03 82 1010.9
20260505073313 15 40 0.0 4.8 0.00 0.03 0.03 84 1011.1
20260505071813 14 311 1.6 4.8 0.00 0.03 0.03 86 1011.2
20260505070313 13 175 0.0 3.2 0.00 0.03 0.03 89 1011.1
20260505064816 12 175 1.6 4.8 0.00 0.03 0.03 92 1011.0
20260505063313 11 178 0.0 0.0 0.00 0.03 0.03 92 1011.2
20260505061815 11 178 1.6 4.8 0.03 0.03 0.03 92 1011.3
20260505060312 11 178 0.0 1.6 0.03 0.03 0.03 93 1011.3
20260505054815 11 178 0.0 3.2 0.03 0.03 0.03 92 1011.4
20260505053315 11 136 1.6 6.4 0.03 0.03 0.03 91 1011.5
20260505051812 11 107 0.0 0.0 0.00 0.00 0.00 91 1011.5
20260505050312 11 107 0.0 0.0 0.00 0.00 0.00 90 1011.4
20260505040312 10 107 0.0 0.0 0.00 0.00 0.00 89 1011.6
20260505034812 10 107 0.0 0.0 0.00 0.00 0.00 89 1011.6
20260505033312 10 107 0.0 0.0 0.00 0.00 0.00 89 1011.8
20260505031812 10 107 0.0 0.0 0.00 0.00 0.00 89 1011.9
20260505030312 10 107 0.0 0.0 0.00 0.00 0.00 89 1012.0
20260505024812 10 107 0.0 0.0 0.00 0.00 0.00 89 1012.2
20260505023312 10 107 0.0 0.0 0.00 0.00 0.00 89 1012.3
20260505021811 10 107 1.6 6.4 0.00 0.00 0.00 90 1012.4
20260505020311 10 105 0.0 0.0 0.00 0.00 0.00 89 1012.2
20260505014814 10 105 0.0 0.0 0.00 0.00 0.00 88 1012.4